Weather History for Savannah, GA

Change the Weather History Date:

Sunday, December 23, 2012

  Actual Average Record
Temperature  
Mean Temperature 48 °F 50 °F  
Max Temperature 63 °F 61 °F 81 °F (1956)
Min Temperature 32 °F 40 °F 18 °F (1989)
Degree Days  
Heating Degree Days 17 15  
Month to date heating degree days 162 299  
Since 1 July heating degree days 495 566  
Cooling Degree Days 0 0  
Month to date cooling degree days 11 3  
Year to date cooling degree days 2675 2452  
Moisture  
Dew Point 26 °F    
Average Humidity 49    
Maximum Humidity 75    
Minimum Humidity 23    
Precipitation  
Precipitation 0.00 in 0.10 in 1.68 in (1941)
Month to date precipitation 0.89 2.15  
Year to date precipitation 39.19 47.16  
Snow  
Snow 0.00 in 0.00 in - ()
Month to date snowfall 0.0  
Since 1 July snowfall 0.0 0.1  
Snow Depth 0.00 in    
Sea Level Pressure  
Sea Level Pressure 30.19 in    
Wind  
Wind Speed 4 mph (West)    
Max Wind Speed 13 mph    
Max Gust Speed 16 mph    
Visibility 9 miles    
Events      
T = Trace of Precipitation, MM = Missing Value Source: NWS Daily Summary

Daily Weather History Graph

Daily Weather History Graph

Search for Another Location

Airport:

Trip Planner

Search our weather history database for the weather conditions in past years. The results will help you decide how hot, cold, wet, or windy it might be!

Date:

Astronomy

Dec. 23, 2012 Rise Set
Actual Time 7:22 AM EST 5:25 PM EST
Civil Twilight 6:55 AM EST 5:52 PM EST
Nautical Twilight 6:25 AM EST 6:23 PM EST
Astronomical Twilight 5:55 AM EST 6:53 PM EST
Moon 2:09 PM EST (12/23) 3:11 AM EST (12/23)
Length of Visible Light 10h 57m
Length of Day
10h 02m
Waxing Gibbous, 81% of the Moon is Illuminated
Dec 23
Waxing Gibbous
Dec 28
Full
Jan 4
Last Quarter
Jan 11
New
Jan 18
First Quarter

Hourly Weather History & Observations

Time (EST) Temp. Windchill Dew Point Humidity Pressure Visibility Wind Dir Wind Speed Gust Speed Precip Events Conditions
12:53 AM 34.0 °F 29.8 °F 26.1 °F 73% 30.20 in 10.0 mi West 4.6 mph - N/A   Clear
1:53 AM 34.0 °F 29.8 °F 26.1 °F 73% 30.20 in 10.0 mi West 4.6 mph - N/A   Clear
2:53 AM 34.0 °F 31.0 °F 25.0 °F 70% 30.19 in 10.0 mi West 3.5 mph - N/A   Clear
3:53 AM 36.0 °F - 23.0 °F 59% 30.19 in 10.0 mi Calm Calm - N/A   Clear
4:53 AM 32.0 °F 28.7 °F 23.0 °F 69% 30.19 in 10.0 mi West 3.5 mph - N/A   Clear
5:53 AM 34.0 °F 31.0 °F 21.9 °F 61% 30.21 in 10.0 mi West 3.5 mph - N/A   Clear
6:53 AM 33.8 °F - 21.2 °F 60% 30.22 in 10.0 mi Calm Calm - N/A   Scattered Clouds
7:53 AM 33.8 °F - 23.0 °F 65% 30.24 in 10.0 mi Calm Calm - N/A   Scattered Clouds
8:53 AM 39.9 °F 37.8 °F 27.0 °F 60% 30.25 in 10.0 mi WNW 3.5 mph - N/A   Mostly Cloudy
9:53 AM 46.9 °F - 24.1 °F 41% 30.26 in 10.0 mi NW 4.6 mph - N/A   Mostly Cloudy
10:53 AM 53.1 °F - 24.1 °F 32% 30.25 in 10.0 mi WNW 6.9 mph - N/A   Overcast
11:53 AM 57.0 °F - 23.0 °F 27% 30.22 in 10.0 mi WNW 9.2 mph - N/A   Mostly Cloudy
12:53 PM 57.9 °F - 24.1 °F 27% 30.19 in 10.0 mi West 9.2 mph - N/A   Overcast
1:53 PM 60.1 °F - 24.1 °F 25% 30.16 in 10.0 mi West 9.2 mph - N/A   Overcast
2:53 PM 61.0 °F - 24.1 °F 24% 30.14 in 10.0 mi WNW 6.9 mph - N/A   Overcast
3:53 PM 61.0 °F - 23.0 °F 23% 30.14 in 10.0 mi West 9.2 mph - N/A   Mostly Cloudy
4:53 PM 57.0 °F - 28.0 °F 33% 30.14 in 6.0 mi SW 4.6 mph - N/A   Haze
6:53 PM 51.1 °F - 30.9 °F 46% 30.15 in 9.0 mi Calm Calm - N/A   Overcast
7:53 PM 50.0 °F - 32.0 °F 50% 30.14 in 7.0 mi South 5.8 mph - N/A   Overcast
8:53 PM 50.0 °F - 32.0 °F 50% 30.14 in 10.0 mi Calm Calm - N/A   Overcast
9:53 PM 50.0 °F - 32.0 °F 50% 30.16 in 10.0 mi SW 3.5 mph - N/A   Overcast
10:53 PM 51.1 °F - 32.0 °F 48% 30.15 in 7.0 mi WSW 4.6 mph - N/A   Overcast
11:53 PM 52.0 °F - 30.0 °F 43% 30.16 in 7.0 mi SW 3.5 mph - N/A   Overcast